Date,TemperatureHighF,TemperatureAvgF,TemperatureLowF,DewpointHighF,DewpointAvgF,DewpointLowF,HumidityHigh,HumidityAvg,HumidityLow,PressureMaxIn,PressureMinIn,WindSpeedMaxMPH,WindSpeedAvgMPH,GustSpeedMaxMPH,PrecipitationSumIn
2013-9-1,80.8,73.8,68.3,78.0,72.9,68.3,100,97,80,29.93,29.81,5,0,10,0.00
2013-9-2,72.6,69.6,66.9,72.6,69.6,66.9,100,100,100,29.92,29.77,5,0,9,0.00
2013-9-3,74.2,67.8,61.1,72.5,67.5,61.1,100,99,92,29.81,29.73,6,0,13,0.00
2013-9-4,74.8,66.1,58.1,66.8,62.2,58.1,100,89,61,29.92,29.80,10,2,27,0.00
2013-9-5,65.4,59.1,47.3,62.8,53.7,46.6,100,84,55,30.15,29.88,9,2,20,0.04
2013-9-6,65.9,54.7,42.4,54.6,49.1,42.4,100,83,54,30.23,30.07,7,1,14,0.00
2013-9-7,72.0,59.6,50.7,63.5,56.5,50.2,100,91,61,30.07,29.84,5,0,12,0.00
2013-9-8,62.8,57.0,47.2,60.9,53.4,46.8,100,89,66,30.08,29.75,15,3,29,0.00
2013-9-9,67.7,55.4,41.9,55.5,49.9,41.9,100,84,54,30.19,30.08,8,1,13,0.00
2013-9-10,67.1,59.2,51.2,67.1,59.1,51.1,100,100,98,30.12,30.03,0,0,6,0.13
2013-9-11,89.3,74.9,64.4,82.2,71.8,64.4,100,91,64,30.10,29.98,15,1,35,0.60
2013-9-12,76.6,69.2,65.8,76.6,69.2,65.8,100,100,100,30.02,29.70,8,1,14,0.05
2013-9-13,72.0,63.6,55.2,71.4,63.5,55.2,100,100,95,29.77,29.63,8,1,17,0.01
2013-9-14,63.3,56.6,50.1,60.3,55.8,50.1,100,97,86,30.04,29.76,10,3,22,0.00
2013-9-15,68.1,56.6,45.8,60.7,53.3,45.8,100,90,59,30.13,30.00,8,1,14,0.00
2013-9-16,60.7,53.8,40.3,60.7,52.2,40.3,100,94,78,30.26,29.98,12,3,23,0.05
2013-9-17,62.6,49.9,38.5,52.9,45.6,38.5,100,87,62,30.40,30.26,6,0,10,0.00
2013-9-18,70.1,56.0,42.8,55.4,49.8,42.8,100,83,48,30.30,30.13,6,1,13,0.00
2013-9-19,74.7,61.2,50.1,62.9,55.8,50.1,100,84,52,30.13,30.06,8,0,10,0.00
2013-9-20,75.5,62.3,50.0,66.0,58.3,50.0,100,89,59,30.11,30.03,7,1,10,0.00
2013-9-21,72.0,61.8,51.1,67.1,60.4,51.1,100,96,78,30.03,29.72,12,3,28,0.00
2013-9-22,67.2,60.9,48.4,67.2,59.2,48.1,100,95,73,29.83,29.60,10,4,23,0.31
2013-9-23,54.4,49.1,46.1,48.9,46.5,44.3,100,91,78,29.97,29.82,14,6,32,0.00
2013-9-24,59.7,51.4,44.8,50.7,47.7,43.7,97,88,68,29.95,29.82,13,5,30,0.00
2013-9-25,63.2,54.1,47.9,56.8,51.9,47.9,100,93,75,30.00,29.85,8,2,18,0.00
2013-9-26,66.1,53.8,42.4,60.3,51.3,42.4,100,92,68,30.15,30.00,6,0,10,0.00
2013-9-27,67.8,57.7,52.5,61.7,55.9,52.5,100,94,71,30.28,30.15,6,0,10,0.00
2013-9-28,71.8,58.9,48.9,64.4,55.4,48.9,100,90,58,30.35,30.28,7,0,10,0.00
2013-9-29,69.0,57.0,47.0,63.8,54.5,46.9,100,92,65,30.29,30.13,7,1,11,0.00
2013-9-30,69.1,55.6,44.3,64.0,53.5,44.3,100,94,68,30.13,29.98,6,0,10,0.00